Showing default

TOMORROW-S7, 63631

Orbit data source: Space-Track

TOMORROW-S7, 63631 is a payload satellite owned by Tomorrow.io (US) in LEO that was launched on Tue, 22 Apr 2025 UTC via an FALCON 9 launch vehicle from the Air Force Eastern Test Range (AFETR). Payload-class satellites include a variety of spacecraft equipped with specific instruments for various scientific and technological missions. These include communications satellites like Starlink; space stations such as the ISS; scientific satellites like the Hubble; Earth observation satellites from companies like Planet Labs, Umbra, and HawkEye 360; GPS; miniature CubeSats for education and research; and military/defense satellites.

Loading next visibility...
Identifier
63631, 2025-081B
Orbit
LEO
Country
Flag of USUS
Related business
Manufacturer
Blue Canyon
Mission
Operational Commercial Weather
Bus & Motor
CUBESAT 6U, Unknown motor
Mass
12 kg wet, 12 kg dry
Launch date (UTC)
2025-04-22 (5 months ago)
Launch vehicle
FALCON 9
Launch site
Air Force Eastern Test Range (AFETR)
Object type
Payload
Rocket body
Debris
Shape & HBR
Box + 2 Pan, 0.6 m
Radar Cross Section
0.138 m², Medium (>0.1 m² and < 1m²)

Expand to show TLE details & history
Last TLE update: 7 hours ago

TLE from 7 hours ago
0 TOMORROW-S7
1 63631U 25081B   25260.20715648  .00001427  00000-0  13743-3 0  9998
2 63631  45.3946 311.9043 0003550 258.5154 101.5325 14.98165142 22211
Epoch: 2025-09-17T04:58Z
TLE epoch observation values (Epoch: 2025-09-17T04:58:18.319Z)
Latitude
-0.00004°
Longitude
-119.05849°
Altitude
573.102 km
Speed
7.576 km/s
True Right ascension
20h 47m 37s
True Declination
0° 00' 00"
Sunlit
Object was in full shadow at epoch
Visualization orbit readout
Latitude
Unknown
Longitude
Unknown
Altitude
Unknown
Speed
Unknown
Apparent Right ascension
Unknown
Apparent Declination
Unknown
Sunlit
N/A
Visualization observer readout
Local Sidereal Time
04:41:55
Azimuth
Unknown
Elevation
Unknown
Doppler factor
Unknown
Orbital elements
Apogee altitude
576.557 km
Perigee altitude
571.621 km
Semi-major axis
6,952.226 km
Eccentricity
0.00036
Inclination
45.3946°
RAAN
311.9043°
Arg. of periapsis
258.5154°
True anomaly
101.57236°
Mean anomaly
101.5325°
Eccentric anomaly
101.55243°
Mean motion
3.74419 °/min
Orbital period
96.15 mins
BSTAR
0.00013743
Loading maneuver chart data...
Computing Atmospheric mass density...
Loading historical data...
Loading historical data...
Loading historical data...
Loading historical data...
Loading historical data...
Loading historical data...
Loading historical data...
Other satellites on launch #81 in the year 2025 (2025-04-22 UTC)

Documentation

Showing up to 5 results
|